Trenton, NJ

1:18 AM EDT on July 27, 2017 (GMT -0400)
Trenton Mercer

Weather History for KTTN - October, 2012

Change the Weather History Date:

Monday, October 15, 2012

  Actual Average Record
Temperature  
Mean Temperature 63 °F 55 °F  
Max Temperature 68 °F 65 °F 84 °F (1975)
Min Temperature 57 °F 44 °F 30 °F (1987)
Degree Days  
Heating Degree Days 2 11  
Month to date heating degree days 121 125  
Since 1 July heating degree days 167 190  
Cooling Degree Days 0 0  
Month to date cooling degree days 13 7  
Year to date cooling degree days 1232 962  
Growing Degree Days 14 (Base 50)    
Moisture  
Dew Point 59 °F    
Average Humidity 81    
Maximum Humidity 93    
Minimum Humidity 68    
Precipitation  
Precipitation 0.71 in 0.11 in 1.18 in (1930)
Month to date precipitation 1.38 2.12  
Year to date precipitation 29.07 37.37  
Sea Level Pressure  
Sea Level Pressure 29.71 in    
Wind  
Wind Speed 7 mph (WSW)    
Max Wind Speed 17 mph    
Max Gust Speed 24 mph    
Visibility 7 miles    
Events Fog , Rain    
T = Trace of Precipitation, MM = Missing Value Source: NWS Daily Summary

Daily Weather History Graph

Daily Weather History Graph

Search for Another Location

Airport or City:

Trip Planner

Search our weather history database for the weather conditions in past years. The results will help you decide how hot, cold, wet, or windy it might be!

Date:

Astronomy

Oct. 15, 2012 Rise Set
Actual Time 7:10 AM EDT 6:18 PM EDT
Civil Twilight 6:43 AM EDT 6:46 PM EDT
Nautical Twilight 6:11 AM EDT 7:17 PM EDT
Astronomical Twilight 5:39 AM EDT 7:49 PM EDT
Moon 7:17 AM EDT (10/15) 6:16 PM EDT (10/15)
Length of Visible Light 12h 03m
Length of Day
11h 08m
New Moon, 0% of the Moon is Illuminated
Oct 15
New Moon
Oct 21
First Quarter
Oct 29
Full
Nov 6
Last Quarter
Nov 13
New

Hourly Weather History & Observations

Time (EDT) Temp. Dew Point Humidity Pressure Visibility Wind Dir Wind Speed Gust Speed Precip Events Conditions
12:53 AM 59.0 °F 55.0 °F 87% 29.91 in 10.0 mi SSW 5.8 mph - N/A   Clear
1:53 AM 59.0 °F 55.0 °F 87% 29.89 in 10.0 mi SSW 5.8 mph - N/A   Clear
2:53 AM 60.1 °F 55.9 °F 86% 29.86 in 10.0 mi SSW 9.2 mph - N/A   Scattered Clouds
3:53 AM 60.1 °F 55.9 °F 86% 29.83 in 10.0 mi SSW 3.5 mph - N/A   Partly Cloudy
4:53 AM 60.1 °F 55.9 °F 86% 29.81 in 10.0 mi Calm Calm - N/A   Scattered Clouds
5:53 AM 62.1 °F 55.9 °F 80% 29.78 in 10.0 mi SSW 6.9 mph - N/A   Clear
6:53 AM 64.0 °F 57.0 °F 78% 29.78 in 10.0 mi SW 9.2 mph - N/A   Clear
7:53 AM 64.9 °F 57.0 °F 75% 29.77 in 10.0 mi SW 8.1 mph - N/A   Clear
8:53 AM 66.0 °F 57.9 °F 75% 29.77 in 10.0 mi SW 9.2 mph - N/A   Partly Cloudy
9:53 AM 68.0 °F 57.9 °F 70% 29.76 in 10.0 mi SW 15.0 mph 21.9 mph N/A   Mostly Cloudy
10:53 AM 68.0 °F 57.9 °F 70% 29.75 in 10.0 mi SW 10.4 mph - N/A   Overcast
11:53 AM 66.9 °F 57.9 °F 73% 29.74 in 10.0 mi WSW 13.8 mph 20.7 mph 0.00 in   Overcast
12:53 PM 68.0 °F 59.0 °F 73% 29.72 in 10.0 mi WSW 15.0 mph 24.2 mph 0.00 in   Mostly Cloudy
1:53 PM 64.9 °F 61.0 °F 87% 29.70 in 6.0 mi SW 8.1 mph - 0.02 in Rain Light Rain
2:53 PM 64.9 °F 62.1 °F 90% 29.67 in 10.0 mi WSW 9.2 mph - 0.01 in   Overcast
3:16 PM 64.4 °F 62.6 °F 94% 29.70 in 9.0 mi WSW 10.4 mph - N/A   Overcast
3:37 PM 64.4 °F 62.6 °F 94% 29.69 in 2.5 mi West 8.1 mph - 0.04 in Rain Light Rain
3:45 PM 64.4 °F 62.6 °F 94% 29.68 in 4.0 mi WSW 6.9 mph - 0.05 in Rain Rain
3:53 PM 64.0 °F 62.1 °F 93% 29.66 in 4.0 mi SW 6.9 mph - 0.06 in Rain Light Rain
4:18 PM 64.4 °F 62.6 °F 94% 29.67 in 4.0 mi Calm Calm - 0.02 in Rain Light Rain
4:36 PM 64.4 °F 62.6 °F 94% 29.66 in 6.0 mi South 3.5 mph - 0.02 in Rain Light Rain
4:53 PM 64.0 °F 62.1 °F 93% 29.65 in 6.0 mi Variable 5.8 mph - 0.02 in Rain Light Rain
5:00 PM 64.4 °F 62.6 °F 94% 29.66 in 2.5 mi NW 8.1 mph - 0.09 in Rain Heavy Rain
5:08 PM 64.4 °F 62.6 °F 94% 29.66 in 1.5 mi NW 5.8 mph - 0.20 in Rain Heavy Rain
5:14 PM 62.6 °F 62.6 °F 100% 29.67 in 1.0 mi WNW 9.2 mph - 0.36 in Rain Heavy Rain
5:21 PM 62.6 °F 60.8 °F 94% 29.66 in 0.5 mi West 8.1 mph - 0.58 in Fog , Rain Heavy Rain
5:28 PM 62.6 °F 60.8 °F 94% 29.67 in 2.0 mi West 6.9 mph - 0.59 in Rain Light Rain
5:31 PM 62.6 °F 60.8 °F 94% 29.66 in 6.0 mi West 5.8 mph - 0.59 in Rain Light Rain
5:43 PM 62.6 °F 60.8 °F 94% 29.66 in 7.0 mi West 3.5 mph - 0.59 in Rain Light Rain
5:53 PM 63.0 °F 61.0 °F 93% 29.64 in 7.0 mi West 4.6 mph - 0.59 in Rain Light Rain
6:23 PM 62.6 °F 60.8 °F 94% 29.68 in 10.0 mi WNW 5.8 mph - 0.01 in   Overcast
6:53 PM 62.1 °F 59.0 °F 90% 29.66 in 10.0 mi WNW 3.5 mph - 0.01 in   Overcast
7:53 PM 60.1 °F 57.9 °F 93% 29.66 in 10.0 mi Calm Calm - N/A   Overcast
8:53 PM 60.1 °F 57.9 °F 93% 29.66 in 9.0 mi WNW 3.5 mph - N/A   Overcast
9:53 PM 59.0 °F 57.9 °F 96% 29.68 in 7.0 mi Calm Calm - 0.00 in   Overcast
10:53 PM 60.1 °F 55.9 °F 86% 29.69 in 10.0 mi WNW 4.6 mph - N/A   Overcast
11:53 PM 57.9 °F 52.0 °F 81% 29.68 in 10.0 mi NW 5.8 mph - 0.00 in   Overcast